#Comment Line 1
#Comment Line 2
#reqtime=1721703615.090,2024-07-23 03:00:15.090,UTC
#URL=http://130.118.152.200:8080/valve3/valve3.jsp?&a=rawData&o=csv&tz=UTC&chCnt.0=1&src.0=hw50_scan&st.0=-2419200000&et.0=N&ch.0=4&dataTypes.0=0.0&ds.0=Decimation&dsInt.0=5&despike.0=F&despike_period.0=&dmo_fl.0=0&filter_arg1.0=&filter_arg2.0=&filter_arg3.0=&dmo_arithmetic.0=None&dmo_arithmetic_value.0=&dmo_db.0=0&debias_period.0=&CH0.0=T&CH1.0=T&CH2.0=T&CH3.0=T&CH4.0=T&CH5.0=T&CH6.0=T&CH7.0=F&CH8.0=T
#source=hw50_scan
#st= 772556415.096, et= 774975615.096, chCnt=1
Epoch,Date,hw50_370_CH0,hw50_370_CH1,hw50_370_CH2,hw50_370_CH3,hw50_370_CH4,hw50_370_CH5,hw50_370_CH6,hw50_370_CH8
1719284460.000,2024-06-25 03:01:00,   12.2545,    1.2411,    0.4822,    0.4686,    0.0046,    0.0000,    0.0004, 5208.0235
1719284760.000,2024-06-25 03:06:00,   12.2465,    1.2411,    0.4921,    0.4686,    0.0023,    0.0000,    0.0002, 5208.0000
1719285060.000,2024-06-25 03:11:00,   12.2488,    1.2414,    0.5045,    0.4687,    0.0008,    0.0000,    0.0000, 5208.0000
1719285360.000,2024-06-25 03:16:00,   12.2434,    1.2412,    0.4873,    0.4690,    0.0000,    0.0000,    0.0000, 5208.0000
1719285660.000,2024-06-25 03:21:00,   12.2381,    1.2412,    0.4835,    0.4687,    0.0000,    0.0000,    0.0000, 5208.0000
1719285960.000,2024-06-25 03:26:00,   12.2377,    1.2410,    0.4885,    0.4689,    0.0000,    0.0000,    0.0000, 5208.0000
1719286260.000,2024-06-25 03:31:00,   12.2366,    1.2413,    0.5077,    0.4686,    0.0000,    0.0000,    0.0000, 5208.0000
1719286560.000,2024-06-25 03:36:00,   12.2411,    1.2416,    0.6410,    0.4690,    0.0000,    0.0000,    0.0000, 5208.0000
1719286860.000,2024-06-25 03:41:00,   12.2301,    1.2413,    0.4706,    0.4685,    0.0000,    0.0000,    0.0000, 5208.0000
1719287160.000,2024-06-25 03:46:00,   12.2274,    1.2414,    0.4707,    0.4686,    0.0000,    0.0000,    0.0000, 5208.0000
1719287460.000,2024-06-25 03:51:00,   12.2244,    1.2414,    0.4706,    0.4685,    0.0000,    0.0000,    0.0000, 5208.0000
1719287760.000,2024-06-25 03:56:00,   12.2229,    1.2414,    0.4707,    0.4686,    0.0000,    0.0000,    0.0000, 5208.0000
1719288060.000,2024-06-25 04:01:00,   12.2202,    1.2415,    0.4704,    0.4684,    0.0000,    0.0000,    0.0000, 5208.0000
1719288360.000,2024-06-25 04:06:00,   12.2175,    1.2414,    0.4706,    0.4684,    0.0000,    0.0000,    0.0000, 5208.0000
1719288660.000,2024-06-25 04:11:00,   12.2168,    1.2414,    0.4706,    0.4686,    0.0000,    0.0000,    0.0000, 5208.0000
1719288960.000,2024-06-25 04:16:00,   12.2145,    1.2414,    0.4707,    0.4685,    0.0000,    0.0000,    0.0000, 5208.0000
1719289260.000,2024-06-25 04:21:00,   12.2130,    1.2415,    0.4706,    0.4685,    0.0000,    0.0000,    0.0000, 5208.0000
1719289560.000,2024-06-25 04:26:00,   12.2107,    1.2417,    0.4706,    0.4684,    0.0000,    0.0000,    0.0000, 5208.0000
1719289860.000,2024-06-25 04:31:00,   12.2080,    1.2416,    0.4706,    0.4685,    0.0000,    0.0000,    0.0000, 5208.0000
1719290160.000,2024-06-25 04:36:00,   12.2065,    1.2416,    0.4710,    0.4685,    0.0000,    0.0000,    0.0000, 5208.0000
1719290460.000,2024-06-25 04:41:00,   12.2156,    1.2417,    0.6451,    0.4688,    0.0000,    0.0000,    0.0000, 5208.0000
1719290760.000,2024-06-25 04:46:00,   12.2126,    1.2418,    0.6519,    0.4690,    0.0000,    0.0000,    0.0000, 5208.0000
1719291060.000,2024-06-25 04:51:00,   12.2065,    1.2413,    0.4839,    0.4689,    0.0000,    0.0000,    0.0000, 5208.0000
1719291360.000,2024-06-25 04:56:00,   12.2000,    1.2415,    0.4703,    0.4685,    0.0000,    0.0000,    0.0000, 5208.0000
1719291660.000,2024-06-25 05:01:00,   12.1973,    1.2416,    0.4718,    0.4684,    0.0000,    0.0000,    0.0000, 5208.0000
1719291960.000,2024-06-25 05:06:00,   12.1973,    1.2416,    0.4970,    0.4690,    0.0000,    0.0000,    0.0000, 5208.0000
1719292260.000,2024-06-25 05:11:00,   12.2011,    1.2417,    0.5526,    0.4687,    0.0000,    0.0000,    0.0000, 5208.0000
1719292560.000,2024-06-25 05:16:00,   12.1966,    1.2420,    0.5103,    0.4687,    0.0000,    0.0000,    0.0000, 5208.0000
1719292860.000,2024-06-25 05:21:00,   12.1935,    1.2427,    0.4984,    0.4689,    0.0000,    0.0000,    0.0000, 5208.0000
1719293160.000,2024-06-25 05:26:00,   12.1962,    1.2418,    0.6362,    0.4688,    0.0000,    0.0000,    0.0000, 5208.0000
1719293460.000,2024-06-25 05:31:00,   12.1893,    1.2416,    0.5062,    0.4684,    0.0000,    0.0000,    0.0000, 5208.0000
1719293760.000,2024-06-25 05:36:00,   12.1836,    1.2419,    0.4934,    0.4686,    0.0000,    0.0000,    0.0000, 5208.0000
1719294060.000,2024-06-25 05:41:00,   12.1855,    1.2418,    0.5074,    0.4687,    0.0000,    0.0000,    0.0000, 5208.0000
1719294360.000,2024-06-25 05:46:00,   12.1832,    1.2417,    0.4946,    0.4690,    0.0000,    0.0000,    0.0000, 5208.0000
1719294660.000,2024-06-25 05:51:00,   12.1817,    1.2416,    0.5071,    0.4687,    0.0000,    0.0000,    0.0000, 5208.0000
1719294960.000,2024-06-25 05:56:00,   12.1794,    1.2416,    0.5044,    0.4684,    0.0000,    0.0000,    0.0000, 5208.0000
1719295260.000,2024-06-25 06:01:00,   12.1764,    1.2417,    0.4800,    0.4685,    0.0000,    0.0000,    0.0000, 5208.0000
1719295560.000,2024-06-25 06:06:00,   12.1756,    1.2417,    0.4955,    0.4689,    0.0000,    0.0000,    0.0000, 5208.0000
1719295860.000,2024-06-25 06:11:00,   12.1726,    1.2416,    0.4967,    0.4687,    0.0000,    0.0000,    0.0000, 5208.0000
1719296160.000,2024-06-25 06:16:00,   12.1726,    1.2416,    0.5068,    0.4688,    0.0000,    0.0000,    0.0000, 5208.0000
1719296460.000,2024-06-25 06:21:00,   12.1703,    1.2418,    0.5087,    0.4687,    0.0000,    0.0000,    0.0000, 5208.0000
1719296760.000,2024-06-25 06:26:00,   12.1684,    1.2414,    0.4955,    0.4689,    0.0000,    0.0000,    0.0000, 5208.0000
1719297060.000,2024-06-25 06:31:00,   12.1665,    1.2417,    0.4995,    0.4692,    0.0000,    0.0000,    0.0000, 5208.0000
1719297360.000,2024-06-25 06:36:00,   12.1642,    1.2417,    0.4984,    0.4690,    0.0000,    0.0000,    0.0000, 5208.0000
1719297660.000,2024-06-25 06:41:00,   12.1600,    1.2416,    0.4716,    0.4685,    0.0000,    0.0000,    0.0000, 5208.0000
1719297960.000,2024-06-25 06:46:00,   12.1562,    1.2417,    0.4740,    0.4684,    0.0000,    0.0000,    0.0000, 5208.0000
1719298260.000,2024-06-25 06:51:00,   12.1581,    1.2417,    0.4739,    0.4685,    0.0000,    0.0000,    0.0000, 5208.0000
1719298560.000,2024-06-25 06:56:00,   12.1630,    1.2419,    0.6477,    0.4690,    0.0000,    0.0000,    0.0000, 5208.0000
1719298860.000,2024-06-25 07:01:00,   12.1543,    1.2416,    0.4850,    0.4689,    0.0000,    0.0000,    0.0000, 5208.0000
1719299160.000,2024-06-25 07:06:00,   12.1535,    1.2417,    0.4988,    0.4690,    0.0000,    0.0000,    0.0000, 5208.0000
1719299460.000,2024-06-25 07:11:00,   12.1516,    1.2417,    0.4952,    0.4689,    0.0000,    0.0000,    0.0000, 5208.0000
1719299760.000,2024-06-25 07:16:00,   12.1482,    1.2417,    0.4730,    0.4685,    0.0000,    0.0000,    0.0000, 5208.0000
1719300060.000,2024-06-25 07:21:00,   12.1459,    1.2419,    0.4728,    0.4685,    0.0000,    0.0000,    0.0000, 5208.0000
1719300360.000,2024-06-25 07:26:00,   12.1448,    1.2417,    0.4729,    0.4685,    0.0000,    0.0000,    0.0000, 5208.0000
1719300660.000,2024-06-25 07:31:00,   12.1429,    1.2417,    0.4730,    0.4686,    0.0000,    0.0000,    0.0000, 5208.0000
1719300960.000,2024-06-25 07:36:00,   12.1402,    1.2418,    0.4728,    0.4685,    0.0000,    0.0000,    0.0000, 5208.0000
1719301260.000,2024-06-25 07:41:00,   12.1371,    1.2418,    0.4727,    0.4684,    0.0000,    0.0000,    0.0000, 5208.0000
1719301560.000,2024-06-25 07:46:00,   12.1379,    1.2419,    0.4728,    0.4685,    0.0000,    0.0000,    0.0000, 5208.0000
1719301860.000,2024-06-25 07:51:00,   12.1352,    1.2418,    0.4728,    0.4686,    0.0000,    0.0000,    0.0000, 5208.0000
1719302160.000,2024-06-25 07:56:00,   12.1341,    1.2417,    0.4728,    0.4685,    0.0000,    0.0000,    0.0000, 5208.0000
1719302460.000,2024-06-25 08:01:00,   12.1299,    1.2416,    0.4727,    0.4685,    0.0000,    0.0000,    0.0000, 5208.0000
1719302760.000,2024-06-25 08:06:00,   12.1295,    1.2418,    0.4728,    0.4685,    0.0000,    0.0000,    0.0000, 5208.0000
1719303060.000,2024-06-25 08:11:00,   12.1253,    1.2417,    0.4726,    0.4683,    0.0000,    0.0000,    0.0000, 5208.0000
1719303360.000,2024-06-25 08:16:00,   12.1265,    1.2418,    0.4727,    0.4685,    0.0000,    0.0000,    0.0000, 5208.0000
1719303660.000,2024-06-25 08:21:00,   12.1253,    1.2419,    0.4729,    0.4685,    0.0000,    0.0000,    0.0000, 5208.0000
1719303960.000,2024-06-25 08:26:00,   12.1238,    1.2417,    0.4729,    0.4685,    0.0004,    0.0000,    0.0000, 5208.0000
1719304260.000,2024-06-25 08:31:00,   12.1219,    1.2418,    0.4728,    0.4684,    0.0008,    0.0000,    0.0000, 5208.0000
1719304560.000,2024-06-25 08:36:00,   12.1208,    1.2418,    0.4728,    0.4684,    0.0008,    0.0000,    0.0000, 5208.0000
1719304860.000,2024-06-25 08:41:00,   12.1188,    1.2418,    0.4729,    0.4685,    0.0011,    0.0000,    0.0000, 5208.0000
1719305160.000,2024-06-25 08:46:00,   12.1169,    1.2418,    0.4727,    0.4684,    0.0015,    0.0000,    0.0000, 5208.0000
1719305460.000,2024-06-25 08:51:00,   12.1135,    1.2417,    0.4729,    0.4684,    0.0015,    0.0000,    0.0000, 5208.0000
1719305760.000,2024-06-25 08:56:00,   12.1128,    1.2418,    0.4728,    0.4684,    0.0023,    0.0000,    0.0000, 5208.0000
1719306060.000,2024-06-25 09:01:00,   12.1120,    1.2417,    0.4729,    0.4686,    0.0023,    0.0000,    0.0000, 5208.0000
1719306360.000,2024-06-25 09:06:00,   12.1105,    1.2418,    0.4729,    0.4685,    0.0027,    0.0000,    0.0000, 5208.0000
1719306660.000,2024-06-25 09:11:00,   12.1097,    1.2419,    0.4730,    0.4686,    0.0027,    0.0000,    0.0000, 5208.0000
1719306960.000,2024-06-25 09:16:00,   12.1067,    1.2417,    0.4730,    0.4684,    0.0023,    0.0000,    0.0000, 5208.0000
1719307260.000,2024-06-25 09:21:00,   12.1067,    1.2418,    0.4730,    0.4683,    0.0023,    0.0000,    0.0000, 5208.0000
1719307560.000,2024-06-25 09:26:00,   12.1048,    1.2418,    0.4733,    0.4686,    0.0030,    0.0000,    0.0000, 5208.0000
1719307860.000,2024-06-25 09:31:00,   12.1013,    1.2418,    0.4732,    0.4684,    0.0034,    0.0000,    0.0000, 5208.0000
1719308160.000,2024-06-25 09:36:00,   12.1025,    1.2413,    0.4734,    0.4686,    0.0034,    0.0000,    0.0000, 5208.0000
1719308460.000,2024-06-25 09:41:00,   12.1009,    1.2418,    0.4733,    0.4685,    0.0034,    0.0000,    0.0000, 5208.0000
1719308760.000,2024-06-25 09:46:00,   12.0990,    1.2417,    0.4731,    0.4684,    0.0038,    0.0000,    0.0000, 5208.0000
1719309060.000,2024-06-25 09:51:00,   12.0994,    1.2416,    0.4732,    0.4685,    0.0042,    0.0000,    0.0000, 5208.0000
1719309360.000,2024-06-25 09:56:00,   12.0964,    1.2418,    0.4730,    0.4684,    0.0042,    0.0000,    0.0001, 5208.0000
1719309660.000,2024-06-25 10:01:00,   12.0948,    1.2418,    0.4732,    0.4684,    0.0050,    0.0000,    0.0001, 5208.0000
1719309960.000,2024-06-25 10:06:00,   12.0945,    1.2418,    0.4735,    0.4687,    0.0050,    0.0000,    0.0001, 5208.0039
1719310260.000,2024-06-25 10:11:00,   12.0926,    1.2419,    0.4735,    0.4684,    0.0053,    0.0000,    0.0002, 5208.0039
1719310560.000,2024-06-25 10:16:00,   12.0910,    1.2417,    0.4736,    0.4685,    0.0053,    0.0000,    0.0001, 5208.0078
1719310860.000,2024-06-25 10:21:00,   12.0907,    1.2418,    0.4735,    0.4686,    0.0057,    0.0000,    0.0002, 5208.0118
1719311160.000,2024-06-25 10:26:00,   12.0868,    1.2420,    0.4733,    0.4682,    0.0057,    0.0000,    0.0002, 5208.0157
1719311460.000,2024-06-25 10:31:00,   12.0876,    1.2419,    0.4737,    0.4684,    0.0061,    0.0000,    0.0002, 5208.0118
1719311760.000,2024-06-25 10:36:00,   12.0861,    1.2418,    0.4738,    0.4685,    0.0065,    0.0000,    0.0003, 5208.0196
1719312060.000,2024-06-25 10:41:00,   12.0849,    1.2418,    0.4739,    0.4686,    0.0069,    0.0000,    0.0003, 5208.0196
1719312360.000,2024-06-25 10:46:00,   12.0846,    1.2418,    0.4739,    0.4686,    0.0072,    0.0000,    0.0003, 5208.0235
1719312660.000,2024-06-25 10:51:00,   12.0827,    1.2418,    0.4739,    0.4684,    0.0072,    0.0000,    0.0003, 5208.0274
1719312960.000,2024-06-25 10:56:00,   12.0815,    1.2418,    0.4740,    0.4684,    0.0076,    0.0000,    0.0003, 5208.0274
1719313260.000,2024-06-25 11:01:00,   12.0807,    1.2418,    0.4740,    0.4686,    0.0076,    0.0000,    0.0003, 5208.0274
1719313560.000,2024-06-25 11:06:00,   12.0785,    1.2420,    0.4741,    0.4685,    0.0076,    0.0000,    0.0003, 5208.0353
1719313860.000,2024-06-25 11:11:00,   12.0777,    1.2413,    0.4743,    0.4685,    0.0084,    0.0000,    0.0003, 5208.0313
1719314160.000,2024-06-25 11:16:00,   12.0762,    1.2418,    0.4741,    0.4684,    0.0084,    0.0000,    0.0004, 5208.0353
1719314460.000,2024-06-25 11:21:00,   12.0724,    1.2420,    0.4742,    0.4684,    0.0084,    0.0000,    0.0005, 5208.0392
1719314760.000,2024-06-25 11:26:00,   12.0739,    1.2418,    0.4743,    0.4683,    0.0088,    0.0000,    0.0005, 5208.0431
1719315060.000,2024-06-25 11:31:00,   12.0727,    1.2418,    0.4746,    0.4685,    0.0091,    0.0000,    0.0005, 5208.0431
1719315360.000,2024-06-25 11:36:00,   12.0720,    1.2413,    0.4745,    0.4685,    0.0095,    0.0000,    0.0005, 5208.0509
1719315660.000,2024-06-25 11:41:00,   12.0705,    1.2418,    0.4745,    0.4684,    0.0099,    0.0000,    0.0005, 5208.0509
1719315960.000,2024-06-25 11:46:00,   12.0697,    1.2419,    0.4745,    0.4683,    0.0099,    0.0000,    0.0006, 5208.0549
1719316260.000,2024-06-25 11:51:00,   12.0686,    1.2417,    0.4744,    0.4684,    0.0103,    0.0000,    0.0006, 5208.0588
1719316560.000,2024-06-25 11:56:00,   12.0647,    1.2417,    0.4769,    0.4683,    0.0107,    0.0000,    0.0006, 5208.0588
1719316860.000,2024-06-25 12:01:00,   12.0667,    1.2414,    0.4753,    0.4684,    0.0107,    0.0000,    0.0006, 5208.0666
1719317160.000,2024-06-25 12:06:00,   12.0651,    1.2417,    0.4752,    0.4685,    0.0110,    0.0000,    0.0006, 5208.0666
1719317460.000,2024-06-25 12:11:00,   12.0644,    1.2420,    0.4751,    0.4684,    0.0114,    0.0000,    0.0007, 5208.0666
1719317760.000,2024-06-25 12:16:00,   12.0636,    1.2418,    0.4751,    0.4683,    0.0118,    0.0000,    0.0007, 5208.0744
1719318060.000,2024-06-25 12:21:00,   12.0617,    1.2418,    0.4754,    0.4685,    0.0118,    0.0000,    0.0008, 5208.0744
1719318360.000,2024-06-25 12:26:00,   12.0625,    1.2417,    0.4754,    0.4684,    0.0122,    0.0000,    0.0008, 5208.0784
1719318660.000,2024-06-25 12:31:00,   12.0609,    1.2418,    0.4757,    0.4685,    0.0126,    0.0000,    0.0008, 5208.0823
1719318960.000,2024-06-25 12:36:00,   12.0594,    1.2418,    0.4759,    0.4685,    0.0126,    0.0000,    0.0008, 5208.0823
1719319260.000,2024-06-25 12:41:00,   12.0590,    1.2423,    0.4758,    0.4685,    0.0130,    0.0000,    0.0008, 5208.0862
1719319560.000,2024-06-25 12:46:00,   12.0579,    1.2418,    0.4759,    0.4684,    0.0133,    0.0000,    0.0009, 5208.0901
1719319860.000,2024-06-25 12:51:00,   12.0575,    1.2414,    0.4759,    0.4684,    0.0141,    0.0000,    0.0010, 5208.0901
1719320160.000,2024-06-25 12:56:00,   12.0560,    1.2416,    0.4760,    0.4686,    0.0141,    0.0000,    0.0009, 5208.0980
1719320460.000,2024-06-25 13:01:00,   12.0556,    1.2418,    0.4759,    0.4684,    0.0149,    0.0000,    0.0010, 5208.1019
1719320760.000,2024-06-25 13:06:00,   12.0594,    1.2417,    0.4758,    0.4684,    0.0149,    0.0000,    0.0010, 5208.1058
1719321060.000,2024-06-25 13:11:00,   12.0621,    1.2414,    0.4758,    0.4684,    0.0152,    0.0000,    0.0011, 5208.1136
1719321360.000,2024-06-25 13:16:00,   12.0731,    1.2415,    0.4759,    0.4684,    0.0160,    0.0000,    0.0011, 5208.1175
1719321660.000,2024-06-25 13:21:00,   12.0788,    1.2429,    0.4760,    0.4684,    0.0168,    0.0000,    0.0012, 5208.1215
1719321960.000,2024-06-25 13:26:00,   12.0800,    1.2413,    0.4762,    0.4684,    0.0171,    0.0000,    0.0012, 5208.1293
1719322260.000,2024-06-25 13:31:00,   12.0773,    1.2420,    0.4761,    0.4683,    0.0175,    0.0000,    0.0013, 5208.1332
1719322560.000,2024-06-25 13:36:00,   12.0781,    1.2418,    0.4763,    0.4685,    0.0183,    0.0002,    0.0013, 5208.1411
1719322860.000,2024-06-25 13:41:00,   12.0907,    1.2418,    0.4758,    0.4686,    0.0191,    0.0005,    0.0014, 5208.1528
1719323160.000,2024-06-25 13:46:00,   12.1036,    1.2412,    0.4756,    0.4686,    0.0198,    0.0010,    0.0015, 5208.1567
1719323460.000,2024-06-25 13:51:00,   12.0979,    1.2419,    0.4745,    0.4686,    0.0210,    0.0014,    0.0016, 5208.1685
1719323760.000,2024-06-25 13:56:00,   12.0899,    1.2420,    0.4738,    0.4687,    0.0217,    0.0018,    0.0016, 5208.1763
1719324060.000,2024-06-25 14:01:00,   12.1048,    1.2418,    0.4740,    0.4686,    0.0229,    0.0023,    0.0018, 5208.1881
1719324360.000,2024-06-25 14:06:00,   12.1318,    1.2415,    0.4739,    0.4687,    0.0236,    0.0028,    0.0019, 5208.1998
1719324660.000,2024-06-25 14:11:00,   12.1352,    1.2418,    0.4748,    0.4687,    0.0248,    0.0033,    0.0020, 5208.2155
1719324960.000,2024-06-25 14:16:00,   12.1242,    1.2416,    0.4749,    0.4686,    0.0259,    0.0038,    0.0021, 5208.2194
1719325260.000,2024-06-25 14:21:00,   12.1009,    1.2417,    0.4749,    0.4685,    0.0267,    0.0043,    0.0022, 5208.2312
1719325560.000,2024-06-25 14:26:00,   12.0933,    1.2431,    0.4751,    0.4685,    0.0274,    0.0048,    0.0022, 5208.2390
1719325860.000,2024-06-25 14:31:00,   12.1055,    1.2415,    0.4756,    0.4686,    0.0282,    0.0053,    0.0023, 5208.2508
1719326160.000,2024-06-25 14:36:00,   12.1295,    1.2417,    0.4845,    0.4692,    0.0293,    0.0056,    0.0024, 5208.2625
1719326460.000,2024-06-25 14:41:00,   12.1341,    1.2405,    0.4832,    0.4692,    0.0301,    0.0059,    0.0025, 5208.2664
1719326760.000,2024-06-25 14:46:00,   12.1562,    1.2416,    0.4865,    0.4692,    0.0305,    0.0062,    0.0026, 5208.2743
1719327060.000,2024-06-25 14:51:00,   12.1764,    1.2392,    0.4740,    0.4686,    0.0309,    0.0065,    0.0027, 5208.2821
1719327360.000,2024-06-25 14:56:00,   12.1699,    1.2415,    0.4740,    0.4687,    0.0320,    0.0068,    0.0027, 5208.2860
1719327660.000,2024-06-25 15:01:00,   12.1611,    1.2421,    0.4829,    0.4692,    0.0320,    0.0070,    0.0027, 5208.2939
1719327960.000,2024-06-25 15:06:00,   12.1714,    1.2417,    0.4946,    0.4693,    0.0331,    0.0074,    0.0028, 5208.3017
1719328260.000,2024-06-25 15:11:00,   12.1798,    1.2413,    0.4745,    0.4690,    0.0331,    0.0077,    0.0029, 5208.3095
1719328560.000,2024-06-25 15:16:00,   12.2046,    1.2420,    0.4843,    0.4694,    0.0339,    0.0080,    0.0029, 5208.3135
1719328860.000,2024-06-25 15:21:00,   12.2373,    1.2417,    0.4995,    0.4690,    0.0343,    0.0083,    0.0030, 5208.3213
1719329160.000,2024-06-25 15:26:00,   12.2453,    1.2405,    0.4934,    0.4693,    0.0351,    0.0086,    0.0031, 5208.3291
1719329460.000,2024-06-25 15:31:00,   12.2625,    1.2413,    0.4837,    0.4693,    0.0362,    0.0090,    0.0032, 5208.3370
1719329760.000,2024-06-25 15:36:00,   12.2617,    1.2416,    0.4812,    0.4691,    0.0366,    0.0094,    0.0033, 5208.3448
1719330060.000,2024-06-25 15:41:00,   12.2606,    1.2418,    0.4776,    0.4691,    0.0377,    0.0098,    0.0034, 5208.3526
1719330360.000,2024-06-25 15:46:00,   12.2408,    1.2423,    0.4836,    0.4694,    0.0385,    0.0102,    0.0034, 5208.3644
1719330660.000,2024-06-25 15:51:00,   12.2236,    1.2419,    0.5236,    0.4694,    0.0392,    0.0106,    0.0035, 5208.3722
1719330960.000,2024-06-25 15:56:00,   12.2145,    1.2423,    0.4804,    0.4689,    0.0396,    0.0111,    0.0036, 5208.3801
1719331260.000,2024-06-25 16:01:00,   12.2145,    1.2416,    0.4850,    0.4695,    0.0404,    0.0114,    0.0037, 5208.3918
1719331560.000,2024-06-25 16:06:00,   12.2492,    1.2416,    0.5068,    0.4694,    0.0411,    0.0118,    0.0038, 5208.3997
1719331860.000,2024-06-25 16:11:00,   12.3745,    1.2418,    0.4867,    0.4697,    0.0419,    0.0122,    0.0038, 5208.4036
1719332160.000,2024-06-25 16:16:00,   12.6705,    1.2420,    0.4699,    0.4695,    0.0431,    0.0125,    0.0039, 5208.4153
1719332460.000,2024-06-25 16:21:00,   12.9266,    1.2369,    0.4904,    0.4699,    0.0438,    0.0130,    0.0040, 5208.4271
1719332760.000,2024-06-25 16:26:00,   13.0706,    1.2420,    0.4831,    0.4702,    0.0450,    0.0135,    0.0041, 5208.4388
1719333060.000,2024-06-25 16:31:00,   13.1468,    1.2418,    0.4809,    0.4697,    0.0461,    0.0142,    0.0043, 5208.4506
1719333360.000,2024-06-25 16:36:00,   13.2268,    1.2413,    0.4952,    0.4702,    0.0472,    0.0150,    0.0044, 5208.4702
1719333660.000,2024-06-25 16:41:00,   13.3868,    1.2412,    0.4875,    0.4702,    0.0503,    0.0161,    0.0046, 5208.4937
1719333960.000,2024-06-25 16:46:00,   13.3685,    1.2408,    0.4898,    0.4702,    0.0518,    0.0172,    0.0048, 5208.5172
1719334260.000,2024-06-25 16:51:00,   13.3140,    1.2421,    0.5035,    0.4700,    0.0545,    0.0185,    0.0051, 5208.5485
1719334560.000,2024-06-25 16:56:00,   13.2927,    1.2417,    0.7471,    0.4700,    0.0575,    0.0198,    0.0054, 5208.5760
1719334860.000,2024-06-25 17:01:00,   13.2565,    1.2414,    0.4853,    0.4703,    0.0606,    0.0211,    0.0057, 5208.6073
1719335160.000,2024-06-25 17:06:00,   13.2222,    1.2407,    0.4878,    0.4705,    0.0632,    0.0224,    0.0059, 5208.6426
1719335460.000,2024-06-25 17:11:00,   13.2032,    1.2408,    0.5135,    0.4703,    0.0652,    0.0236,    0.0062, 5208.6661
1719335760.000,2024-06-25 17:16:00,   13.2032,    1.2416,    0.4989,    0.4705,    0.0686,    0.0246,    0.0066, 5208.6974
1719336060.000,2024-06-25 17:21:00,   13.1712,    1.2405,    0.4892,    0.4706,    0.0701,    0.0255,    0.0068, 5208.7209
1719336360.000,2024-06-25 17:26:00,   13.1696,    1.2412,    0.4959,    0.4706,    0.0720,    0.0262,    0.0070, 5208.7405
1719336660.000,2024-06-25 17:31:00,   13.1323,    1.2410,    0.4865,    0.4703,    0.0735,    0.0268,    0.0072, 5208.7601
1719336960.000,2024-06-25 17:36:00,   13.1186,    1.2408,    0.4887,    0.4706,    0.0751,    0.0273,    0.0075, 5208.7836
1719337260.000,2024-06-25 17:41:00,   13.1034,    1.2414,    0.4905,    0.4704,    0.0770,    0.0275,    0.0077, 5208.7954
1719337560.000,2024-06-25 17:46:00,   13.1380,    1.2411,    0.4915,    0.4704,    0.0777,    0.0277,    0.0079, 5208.8111
1719337860.000,2024-06-25 17:51:00,   13.1079,    1.2408,    0.4972,    0.4706,    0.0785,    0.0275,    0.0080, 5208.8228
1719338160.000,2024-06-25 17:56:00,   13.1205,    1.2410,    0.4887,    0.4703,    0.0785,    0.0271,    0.0082, 5208.8228
1719338460.000,2024-06-25 18:01:00,   13.1022,    1.2415,    0.4897,    0.4705,    0.0789,    0.0266,    0.0083, 5208.8346
1719338760.000,2024-06-25 18:06:00,   13.1007,    1.2413,    0.4973,    0.4706,    0.0789,    0.0259,    0.0084, 5208.8346
1719339060.000,2024-06-25 18:11:00,   12.9738,    1.2413,    0.4951,    0.4702,    0.0785,    0.0253,    0.0085, 5208.8346
1719339360.000,2024-06-25 18:16:00,   13.1338,    1.2410,    0.4995,    0.4697,    0.0781,    0.0242,    0.0086, 5208.8346
1719339660.000,2024-06-25 18:21:00,   13.0946,    1.2410,    0.4970,    0.4702,    0.0770,    0.0230,    0.0085, 5208.8228
1719339960.000,2024-06-25 18:26:00,   13.1956,    1.2410,    0.4877,    0.4702,    0.0751,    0.0215,    0.0084, 5208.7954
1719340260.000,2024-06-25 18:31:00,   13.1830,    1.2408,    0.4953,    0.4700,    0.0724,    0.0197,    0.0082, 5208.7719
1719340560.000,2024-06-25 18:36:00,   13.1868,    1.2408,    0.4884,    0.4702,    0.0697,    0.0179,    0.0078, 5208.7366
1719340860.000,2024-06-25 18:41:00,   13.1925,    1.2414,    0.5044,    0.4699,    0.0663,    0.0161,    0.0074, 5208.7053